Regional Weather Roundup
Issued by NWS Wakefield, VA

Home | Current Version | Previous Version | Text Only | Print | Product List | Glossary On
Versions: 1 2 3 4 5 6 7 8 9 10 11 12 13 14 15 16 17 18 19 20 21 22 23 24 25 26 27 28 29 30 31 32 33 34 35 36 37 38 39 40 41 42 43 44 45 46 47 48 49 50
000
ASUS41 KAKQ 221315
RWRAKQ

REGIONAL WEATHER ROUNDUP
NATIONAL WEATHER SERVICE WAKEFIELD VA
800 AM EST THU FEB 22 2018

Note: "fair" indicates few or no clouds below 12,000 feet with no
significant weather and/or obstructions to visibility. * = Denotes
station may not report precipitation (e.g., rain,snow,etc.),
thunder or fog.

VAZ042-051-052>054-056-221400-
NORTHERN VIRGINIA

CITY           SKY/WX    TMP DP  RH WIND       PRES   REMARKS
WASH NATIONAL  CLOUDY    56  39  53 NE14      30.47R
DULLES         CLOUDY    51  44  77 N10       30.48R
FORT BELVOIR   CLOUDY    57  40  54 NE3       30.46R
QUANTICO       CLOUDY    58  46  64 NE12      30.47R
FREDERICKSBRG* CLOUDY    59  52  78 N7        30.44R
STAFFORD*      CLOUDY    58  48  67 NE5       30.49R
WARRENTON      CLOUDY    54  43  65 N7        30.46R
CULPEPER*      CLOUDY    55  46  71 N8        30.47R
MANASSAS*      CLOUDY    56  44  64 N9        30.47R
LEESBURG*      DRIZZLE   50  41  71 N10G20    30.50R
WINCHESTER     CLOUDY    45  34  65 N5        30.50R
FRONT ROYAL*   CLOUDY    46  41  81 NE5       30.48R
LURAY*         CLOUDY    50  46  87 N12G18    30.45R
$$

VAZ048-049-060>072-079>083-221400-
CENTRAL AND SOUTH CENTRAL VIRGINIA

CITY           SKY/WX    TMP DP  RH WIND       PRES   REMARKS
RICHMOND       FOG       62  62 100 S6        30.42R VSB 3/4
CHESTERFIELD*  CLOUDY    63  63 100 S6        30.43R FOG
PETERSBURG*    NOT AVBL
HANOVER        FOG       61  61 100 S3        30.43R VSB 1/2
TAPPAHANNOCK*  CLOUDY    62  62 100 CALM      30.43R FOG
QUINTON*       CLOUDY    62  62 100 S3        30.42R FOG
CHARLOTTSVILLE CLOUDY    59  51  75 NE13      30.42R
GORDONSVILLE*  CLOUDY    57  52  84 NE7       30.43R
ORANGE*        CLOUDY    54  46  76 N9        30.45R
LOUISA*        CLOUDY    58  53  83 N9        30.47R
BUMPASS*       CLOUDY    61  60  96 CALM      30.42R
FARMVILLE*     CLOUDY   N/A N/A N/A CALM      30.41R
CREWE*         CLOUDY    63  63 100 CALM      30.42R
FORT PICKETT*  CLOUDY    61  61 100 S13G18    30.43R
CHASE CITY*    CLOUDY    63  63 100 S5        30.43R
CLARKSVILLE*   CLOUDY    64  64 100 SW7G16    30.43R
SOUTH HILL*    CLOUDY    62  62 100 S6        30.50R
LAWRENCEVILLE* CLOUDY    62  61  97 S3        30.44R
EMPORIA*       CLOUDY    63  63 100 CALM      30.46S FOG
$$

VAZ088>098-221400-
SOUTHEAST VIRGINIA

CITY           SKY/WX    TMP DP  RH WIND       PRES   REMARKS
NORFOLK        CLOUDY    65  64  97 SW12      30.45R
VIRGINIA BEACH PTSUNNY   64  61  90 SW12      30.45R
NORFOLK NAVAL  PTSUNNY   65  62  90 SW10      30.46
WEST POINT*    CLOUDY    63  61  95 S3        30.45R
SALUDA*        CLOUDY    60  60 100 CALM      30.43R
NEWPORT NEWS   CLOUDY    64  62  93 SW9       30.45R FOG
LANGLEY AFB    CLOUDY    64  64 100 S13       30.45R FOG
FORT EUSTIS    CLOUDY    63  62  98 S5        30.42R
WILLIAMSBURG*  CLOUDY    64  63  94 S5        30.45R
HR EXEC AP*    CLOUDY    65  63  93 SW9       30.46R
FRANKLIN*      CLOUDY    64  63  98 S6        30.46S
US460-WAKEFLD  CLOUDY    64  64 100 SW7       30.44S
$$

VAZ020-022-025-037-045-221400-
WEST CENTRAL AND SOUTHWEST VIRGINIA

CITY           SKY/WX    TMP DP  RH WIND       PRES   REMARKS
STAUNTON*      CLOUDY    53  51  91 N5        30.45R
WAYNESBORO*    CLOUDY    56  55  96 N6        30.43R
HOT SPRINGS VA CLOUDY    58  58 100 S12G18    30.45S FOG
LYNCHBURG      PTSUNNY   64  62  93 S8        30.42R
DANVILLE       CLOUDY    62  62 100 SW5       30.43R
SOUTH BOSTON*  CLOUDY    62  61  95 SW3       30.44R
MARTINSVILLE   CLOUDY    64  61  87 SW3       30.45R
ROANOKE        PTSUNNY   62  61  96 NE3       30.42R
BLACKSBURG     PTSUNNY   65  60  86 S5        30.45R
DUBLIN*        CLOUDY    64  59  85 SW3       30.42R
MARION*        FAIR      64  55  71 CALM      30.44R
HILLSVILLE*    PTSUNNY   62  59  91 S12G20    30.43R
RICHLANDS*     FAIR      65  54  65 SW10G18   30.39R
WISE*          FAIR      63  55  77 S6        30.40R
ABINGDON*      FAIR      59  56  88 CALM      30.39R
$$

MDZ021>025-VAZ099-100-221400-
SOUTHERN MARYLAND AND THE DELMARVA PENINSULA

CITY           SKY/WX    TMP DP  RH WIND       PRES   REMARKS
PATUXENT RIVER CLOUDY    55  52  89 NE6       30.44R
BAY BRIDGE APT CLOUDY    50  43  76 N3        30.48R
LEONARDTOWN    CLOUDY    54  46  76 CALM      30.46R
DOVER          CLOUDY    56  44  64 N8        30.47R
GEORGETOWN     CLOUDY    54  41  61 E14       30.48R
EASTON         CLOUDY    59  48  67 E9        30.49R
CAMBRIDGE      CLOUDY    57  46  67 E10G18    30.45R
SALISBURY      CLOUDY    57  47  69 E16G24    30.46R
OCEAN CITY     CLOUDY    50  47  89 NE9       30.47R
WALLOPS ISLAND CLOUDY   N/A N/A N/A NE15      30.46R
ACCOMACK*      CLOUDY    66  64  93 NW3       30.44R
$$

NCZ012>017-030>032-221400-
NORTH CENTRAL AND EASTERN NORTH CAROLINA

CITY           SKY/WX    TMP DP  RH WIND       PRES   REMARKS
ROANOKE RAPIDS CLOUDY    64  64 100 S9G16     30.45S
RALEIGH        CLOUDY    66  64  93 SW9       30.46R
ELIZABETH CITY FOG       64  64 100 SW7       30.48R VSB 1/4
AHOSKIE*       CLOUDY    64  64 100 S3        30.47R
EDENTON*       FOG       65  65 100 S5        30.49R VSB 1/2
CURRITUCK*     FOG       60  59  97 SW9       30.49R VSB 3/4
KILL DEVIL HLS FOG      N/A N/A N/A CALM      30.47S VSB 1/2
MANTEO         FOG       60  60 100 SW3       30.49R VSB<1/4
CAPE HATTERAS  FAIR      65  64  97 SW6       30.49S FOG
TARBORO*       NOT AVBL
GOLDSBORO      CLOUDY    65  65  98 SW7       30.47R FOG
WASHINGTON     CLOUDY    65  64  96 SW6       30.49R FOG
GREENVILLE     CLOUDY    66  66 100 SW5       30.48R FOG
NEW BERN       FAIR      64  64 100 S5        30.50R
WILMINGTON     FAIR      64  64 100 CALM      30.50R
$$

VAZ048-221400-
ELSEWHERE

CITY           SKY/WX    TMP DP  RH WIND       PRES   REMARKS
HARRISBURG PA  LGT RAIN  44  36  73 NE5       30.52S
BALTIMORE      CLOUDY    53  35  50 NE10      30.47R
ANNAPOLIS      CLOUDY    55  40  56 N7        30.47R
ANDREWS AFB    CLOUDY    54  40  59 NE9       30.45R
PHILADELPHIA   CLOUDY    52  35  52 NE15G24   30.52R
HENDERSON NC   CLOUDY    63  60  89 SW9       30.45R
GREENSBORO     CLOUDY    64  63  96 SW8       30.44R
ROCKY MOUNT    CLOUDY    65  64  97 S7        30.47R FOG
$$

VAZ100-221400-
MARINE

STATION/POSITION TIME  TEMP    WIND        PRES    WAVE   SWELL
                       AIR SEA DIR/SP/G            HT/PER HT/PER
                 (UTC) (F)     (DEG/KT/KT) (MB)    (FT/S) (FT/S)
BRANDYWINE LGT   1242   52      70/ 17/ 20 1032.1R
CAPE MAY NJ      1248   51 44   70/ 18/ 27 1031.4R
LEWES DE         1242   48 46   90/ 15/ 19 1031.7R
15NM E FENWICK I 1250   48 42   50/ 16/ 19 1031.9R   3/14   2/14
OCEAN-CITY-INLET 1242   47 48   70/  7/ 10 1032.1R
WACHAPREAGUE VA  1242   58 59   50/  3/  4 1030.6R
THOMAS POINT MD  1300   49 41   30/ 13/ 14   N/A
COVE POINT MD    1242   45     340/  9/ 12 1031.4R
SOLOMONS ISLAND  1242   53 43  270/  2/  3 1030.5R
BISHOPS HEAD MD  1242   56 50   70/  1/  6 1031.0R
PINEY POINT MD   1242          140/  3/  5   N/A
CAMBRIDGE MD     1242   56 49              1031.8R
LEWISETTA VA     1242   50 51  130/  6/  6 1030.3R
RAPPAHANNOCK LGT 1242          180/ 12/ 12 1031.0R
YORK RVR RNG VA  1242   57     230/ 10/ 12 1031.2R
YORKTOWN VA      1242   63 48  220/ 12/ 16 1030.2R
DOMINION TERM VA 1242   58     230/  8/  9 1031.4R
KIPTOPEKE VA     1242      46  160/  5/  6   N/A
CAPE HENRY VA    1242   65     210/  7/ 10   N/A
S CRANEY ISL VA  1242   63     220/  6/ 13 1030.9R
CAPE HENRY BUOY  1230      45                N/A     2/13   2/13
CAPE CHARLES BUO 1251      45                N/A     2/14   2/14
64NM E OF VA BCH 1250   53 50  210/  8/  8 1032.5R   3/15   3/15
DUCK PIER NC     1242   62 44  210/  9/ 11 1031.6R
44100 DUCK FRF   1245      47                N/A     4/13   2/13
44056 DUCK FRF   1300      47                N/A     3/14   2/14
OREGON INLET NC  1242   59 62  200/  5/  7 1032.3R
HATTERAS NC      1242   64 60  190/  3/  8 1032.5R
DIAMOND SHLS NC  1250   71 68  210/ 10/ 12 1033.2R   4/14   3/14
CAPE LOOKOUT NC  1200          210/  6/  8 1032.6R
$$



USA.gov is the U.S. government's official web portal to all federal, state and local government web resources and services.